Weather in Bolshaya Doroga

Russia / Tambov Oblast     53°24′10″N   40°40′56″E
temp.,
°C
wind,
m/s
gust,
m/s
humid.,
%
clouds,
%
prec.,
mm/h
press.,
hPa
HPBL,
m
2 march, tue
tue200:00−2wsw71492100 0.1 1019548
03:00−2wsw71393100 0.1 1016615
06:000wsw71393100 0.0 1012639
09:00+1w71496100 0.1 1011685
12:00+1w613100100 0.1 1008583
15:00+1wnw51099100 0.2 1007520
18:000wnw4997100 0.3 1007505
21:00−1nw5119497 0.6 1008432
3 march, wed
wed300:00−3nw5129287 0.0 1009312
03:00−4nw5119586 0.1 1011306
06:00−4nw71293100 0.3 1012626
09:00−6nw7139296 0.3 1014647
12:00−5nw71189100 0.1 1014767
15:00−4nw5108596 0.1 1015737
18:00−5w489115 0.0 1014142
21:00−5w5129247 0.0 1015311
4 march, thu
thu400:00−4w6129166 0.0 1013388
03:00−4wsw5119281 0.0 1012337
06:00−4sw71394100 0.0 1009428
09:00−2sw91791100 0.2 1007487
12:00+1wsw9168499 0.0 1005913
15:00+1wsw8158399 0.0 1003902
18:00+1wsw7158799 0.0 1001797
21:00+1wsw71390100 0.0 1001626
5 march, fri
fri500:00+1w51098100 0.2 1001448
03:00−3n4792100 0.6 1003295
06:00−6nw3793100 0.0 1006173
09:00−6nnw2495100 0.0 1008167
12:00−5n119099 0.0 1010234
15:00−4nne118999 0.0 1011238
18:00−5e2293100 0.0 101121
21:00−5ene2393100 0.0 101167
6 march, sat
sat600:00−5ne3597100 0.6 1010152
03:00−5n51094100 2.8 1006448
06:00−7nnw4796100 0.1 1008211
09:00−9nw369691 0.1 1010196
12:00−6wnw579092 0.0 1011640
15:00−5w579095 0.3 1011634
18:00−9w479251 0.1 1012116
21:00−11w349227 0.1 101361